Total_Precipitation_Accumulation
0.97 1.10 1.21 1.38 1.71 2.10 2.65 3.24 3.70 3.74 3.49 3.13 2.74 2.49 2.16 1.93 1.69 1.43 1.24 1.16 1.14 1.20 1.36 1.22 1.31 1.38 1.32 1.25 1.27 1.35 1.38 1.21 1.46 1.54 1.08 0.78 0.68 0.61 0.52 0.52 0.51 0.43 0.48
0.96 1.08 1.28 1.45 1.62 1.99 2.38 2.66 2.58 2.33 2.17 2.08 1.95 1.69 1.65 1.64 1.58 1.47 1.27 1.08 1.08 1.07 1.02 1.02 1.04 1.10 1.13 1.03 1.01 1.14 1.11 0.95 1.21 1.31 1.16 0.76 0.57 0.48 0.40 0.44 0.42 0.44 0.55
0.81 0.98 1.21 1.37 1.39 1.58 1.71 1.64 1.38 1.12 1.08 1.10 1.05 1.18 1.36 1.48 1.53 1.55 1.46 1.29 1.23 1.20 1.14 1.04 0.97 0.94 0.97 0.97 0.95 1.03 1.03 0.91 0.96 1.09 1.24 0.96 0.61 0.47 0.35 0.37 0.44 0.55 0.66
0.61 0.79 0.95 0.97 1.02 1.05 0.92 0.80 0.70 0.60 0.57 0.57 0.63 0.71 0.90 1.20 1.41 1.58 1.63 1.63 1.54 1.38 1.25 1.13 0.95 0.82 0.80 0.84 0.78 0.85 0.96 0.97 0.86 0.87 0.95 0.96 0.97 0.88 0.52 0.32 0.36 0.55 0.64
0.65 0.67 0.62 0.55 0.56 0.55 0.47 0.42 0.45 0.46 0.47 0.48 0.59 0.62 0.58 0.65 0.66 0.74 0.88 1.03 1.15 1.11 0.97 0.91 0.84 0.75 0.69 0.68 0.72 0.83 0.92 0.95 0.87 0.86 0.86 0.90 1.04 1.05 0.91 0.57 0.50 0.56 0.54
0.46 0.45 0.38 0.34 0.33 0.33 0.29 0.35 0.43 0.53 0.53 0.54 0.58 0.58 0.56 0.62 0.61 0.62 0.65 0.64 0.67 0.69 0.67 0.66 0.68 0.67 0.66 0.66 0.66 0.72 0.81 0.90 0.95 0.96 1.01 1.05 1.06 1.12 1.20 0.98 0.80 0.74 0.65
0.33 0.25 0.22 0.22 0.19 0.18 0.17 0.19 0.28 0.38 0.38 0.40 0.46 0.49 0.56 0.59 0.54 0.50 0.47 0.46 0.45 0.48 0.52 0.56 0.61 0.61 0.66 0.72 0.78 0.79 0.79 0.87 0.98 1.02 1.10 1.19 1.18 1.24 1.34 1.28 1.08 0.98 0.96
0.18 0.13 0.10 0.10 0.10 0.10 0.11 0.10 0.13 0.17 0.22 0.28 0.37 0.50 0.67 0.73 0.68 0.66 0.54 0.50 0.48 0.47 0.51 0.58 0.64 0.64 0.66 0.67 0.77 0.82 0.88 0.96 0.99 0.99 1.16 1.24 1.19 1.30 1.44 1.47 1.43 1.29 1.29
0.09 0.06 0.06 0.06 0.05 0.05 0.06 0.06 0.08 0.11 0.19 0.25 0.32 0.37 0.43 0.50 0.51 0.52 0.52 0.49 0.55 0.50 0.55 0.63 0.72 0.75 0.76 0.79 0.83 0.84 0.94 1.12 1.19 1.18 1.22 1.28 1.26 1.31 1.43 1.55 1.59 1.57 1.51
0.05 0.03 0.03 0.03 0.03 0.04 0.06 0.08 0.07 0.14 0.28 0.40 0.46 0.36 0.29 0.27 0.34 0.43 0.50 0.52 0.55 0.56 0.60 0.65 0.68 0.73 0.75 0.79 0.84 0.89 1.00 1.16 1.22 1.31 1.40 1.39 1.33 1.38 1.45 1.50 1.62 1.72 1.73
0.03 0.02 0.01 0.02 0.03 0.06 0.09 0.19 0.24 0.31 0.43 0.58 0.66 0.55 0.38 0.31 0.32 0.36 0.35 0.38 0.46 0.56 0.63 0.60 0.54 0.51 0.57 0.70 0.85 0.92 1.00 1.09 1.13 1.20 1.22 1.22 1.25 1.30 1.25 1.34 1.46 1.63 1.76
0.01 0.01 0.01 0.01 0.03 0.05 0.15 0.38 0.63 0.89 0.95 1.03 1.11 0.96 0.58 0.37 0.30 0.25 0.24 0.30 0.43 0.53 0.59 0.56 0.51 0.49 0.56 0.69 0.84 0.99 1.20 1.33 1.29 1.22 1.14 1.06 1.12 1.21 1.23 1.32 1.35 1.41 1.62
0.01 0.01 0.01 0.01 0.02 0.03 0.09 0.24 0.32 0.56 0.77 0.93 1.04 0.84 0.46 0.27 0.20 0.18 0.23 0.37 0.49 0.53 0.54 0.55 0.61 0.71 0.80 0.91 1.04 1.10 1.24 1.29 1.20 1.16 1.09 1.01 1.01 1.05 1.14 1.26 1.31 1.30 1.37
0.01 0.01 0.01 0.01 0.02 0.02 0.04 0.14 0.19 0.20 0.29 0.53 0.68 0.55 0.32 0.22 0.17 0.18 0.24 0.30 0.34 0.39 0.49 0.62 0.80 0.91 0.98 1.01 1.07 1.07 1.05 1.05 0.96 0.90 0.85 0.89 1.00 1.05 1.04 1.03 1.07 1.13 1.22
0.02 0.02 0.02 0.02 0.02 0.02 0.04 0.10 0.15 0.15 0.23 0.43 0.54 0.43 0.27 0.19 0.13 0.11 0.14 0.19 0.27 0.33 0.47 0.63 0.74 0.73 0.76 0.83 0.90 0.92 0.89 0.85 0.79 0.71 0.58 0.58 0.75 0.89 0.92 0.86 0.90 0.94 1.02
0.02 0.02 0.02 0.02 0.02 0.03 0.04 0.04 0.07 0.12 0.21 0.37 0.49 0.43 0.33 0.21 0.13 0.12 0.14 0.21 0.28 0.34 0.42 0.51 0.52 0.49 0.38 0.36 0.40 0.48 0.56 0.62 0.63 0.56 0.51 0.50 0.52 0.55 0.57 0.62 0.66 0.73 0.81
0.02 0.02 0.01 0.01 0.01 0.03 0.05 0.06 0.06 0.10 0.22 0.37 0.46 0.47 0.42 0.32 0.25 0.17 0.18 0.25 0.30 0.35 0.41 0.41 0.43 0.45 0.45 0.29 0.20 0.21 0.33 0.41 0.45 0.45 0.49 0.40 0.36 0.40 0.40 0.40 0.39 0.42 0.48
0.01 0.01 0.01 0.01 0.01 0.02 0.03 0.05 0.06 0.10 0.19 0.31 0.44 0.50 0.49 0.45 0.43 0.33 0.32 0.36 0.40 0.43 0.47 0.44 0.45 0.50 0.47 0.31 0.21 0.18 0.20 0.31 0.37 0.41 0.43 0.44 0.45 0.46 0.46 0.44 0.43 0.38 0.36
0.02 0.02 0.02 0.02 0.03 0.03 0.03 0.04 0.06 0.10 0.17 0.26 0.41 0.51 0.52 0.51 0.50 0.48 0.48 0.52 0.56 0.52 0.50 0.50 0.52 0.56 0.57 0.39 0.23 0.18 0.26 0.39 0.42 0.45 0.45 0.45 0.47 0.45 0.35 0.38 0.41 0.42 0.44
0.03 0.02 0.02 0.02 0.03 0.04 0.05 0.07 0.09 0.15 0.23 0.28 0.40 0.54 0.64 0.70 0.69 0.67 0.63 0.63 0.72 0.66 0.60 0.56 0.59 0.65 0.72 0.59 0.32 0.23 0.35 0.53 0.58 0.62 0.59 0.48 0.41 0.36 0.26 0.32 0.43 0.42 0.43
0.04 0.03 0.03 0.03 0.05 0.06 0.10 0.15 0.19 0.25 0.27 0.31 0.38 0.51 0.71 0.82 0.82 0.85 0.82 0.79 0.81 0.83 0.83 0.75 0.76 0.80 0.83 0.73 0.41 0.30 0.42 0.60 0.72 0.75 0.72 0.65 0.44 0.32 0.27 0.28 0.37 0.40 0.43
0.04 0.04 0.05 0.05 0.07 0.11 0.20 0.29 0.34 0.34 0.36 0.41 0.48 0.60 0.72 0.67 0.67 0.92 0.97 1.00 1.06 1.05 1.00 0.95 0.88 0.87 0.90 0.80 0.53 0.32 0.41 0.60 0.81 0.89 0.87 0.78 0.54 0.39 0.33 0.32 0.32 0.29 0.31
0.05 0.06 0.09 0.12 0.14 0.22 0.36 0.48 0.48 0.47 0.48 0.51 0.57 0.64 0.72 0.82 0.95 1.04 1.06 1.10 1.16 1.17 1.09 1.04 0.99 0.96 0.99 0.96 0.59 0.40 0.47 0.58 0.77 0.98 0.99 0.82 0.63 0.53 0.43 0.39 0.40 0.36 0.35
0.05 0.08 0.13 0.21 0.30 0.40 0.53 0.61 0.59 0.58 0.58 0.58 0.60 0.64 0.76 0.85 0.97 1.15 1.21 1.22 1.18 1.18 1.16 1.08 1.04 1.04 1.10 1.14 0.89 0.64 0.63 0.71 0.80 0.94 1.00 0.88 0.74 0.65 0.57 0.51 0.49 0.47 0.47
0.09 0.14 0.20 0.29 0.37 0.50 0.60 0.61 0.63 0.69 0.72 0.69 0.68 0.69 0.76 0.91 1.00 1.11 1.21 1.21 1.25 1.10 1.05 0.98 0.94 0.97 1.05 1.07 0.87 0.78 0.81 0.93 0.99 0.98 1.04 1.06 0.95 0.84 0.75 0.71 0.72 0.71 0.66
0.11 0.19 0.28 0.36 0.41 0.53 0.66 0.71 0.79 0.88 0.93 0.88 0.80 0.76 0.80 0.92 1.02 1.11 1.12 0.96 0.90 0.73 0.66 0.66 0.63 0.67 0.73 0.83 0.71 0.62 0.72 0.89 0.96 0.94 0.99 1.08 1.07 0.99 0.91 0.85 0.86 0.85 0.79